Glenwood, MN

6:18 AM CST on February 09, 2016 (GMT -0600)
Glenwood Municipal

Weather History for KGHW - November, 2013

Change the Weather History Date:

Tuesday, November 19, 2013

  Actual Average Record
Temperature  
Mean Temperature 32 °F -  
Max Temperature 46 °F 37 °F 57 °F (1989)
Min Temperature 19 °F 20 °F 0 °F (1986)
Degree Days  
Heating Degree Days 32    
Moisture  
Dew Point 26 °F    
Average Humidity 73    
Maximum Humidity 93    
Minimum Humidity 53    
Precipitation  
Precipitation 0.00 in - - ()
Sea Level Pressure  
Sea Level Pressure 29.92 in    
Wind  
Wind Speed 15 mph (SE)    
Max Wind Speed 29 mph    
Max Gust Speed 39 mph    
Visibility 10 miles    
Events      
Averages and records for this station are not official NWS values.
T = Trace of Precipitation, MM = Missing Value Source: NWS Daily Summary

Daily Weather History Graph

Daily Weather History Graph

Search for Another Location

Airport or City:

Trip Planner

Search our weather history database for the weather conditions in past years. The results will help you decide how hot, cold, wet, or windy it might be!

Date:

Astronomy

Nov. 19, 2013 Rise Set
Actual Time 7:26 AM CST 4:46 PM CST
Civil Twilight 6:53 AM CST 5:19 PM CST
Nautical Twilight 6:17 AM CST 5:55 PM CST
Astronomical Twilight 5:42 AM CST 6:30 PM CST
Moon 6:37 PM CST (11/19) 9:07 AM CST (11/19)
Length of Visible Light 10h 25m
Length of Day
9h 19m
Waning Gibbous, 96% of the Moon is Illuminated
Nov 19
Waning Gibbous
Nov 25
Last Quarter
Dec 2
New
Dec 9
First Quarter
Dec 17
Full

Hourly Weather History & Observations

Time (CST) Temp. Windchill Dew Point Humidity Pressure Visibility Wind Dir Wind Speed Gust Speed Precip Events Conditions
12:13 AM 19.4 °F 10.4 °F 17.6 °F 93% 30.18 in 10.0 mi ESE 6.9 mph - N/A   Clear
12:33 AM 19.4 °F 9.5 °F 17.6 °F 93% 30.17 in 10.0 mi ESE 8.1 mph - N/A   Clear
12:54 AM 21.2 °F 10.9 °F 17.6 °F 86% 30.17 in 10.0 mi ESE 9.2 mph - N/A   Clear
1:13 AM 21.2 °F 10.9 °F 19.4 °F 93% 30.17 in 10.0 mi ESE 9.2 mph - N/A   Clear
1:34 AM 21.2 °F 10.9 °F 19.4 °F 93% 30.16 in 10.0 mi ESE 9.2 mph - N/A   Clear
1:53 AM 21.2 °F 10.1 °F 19.4 °F 93% 30.15 in 10.0 mi SE 10.4 mph - N/A   Clear
2:13 AM 21.2 °F 10.1 °F 19.4 °F 93% 30.15 in 10.0 mi ESE 10.4 mph - N/A   Clear
2:33 AM 21.2 °F 11.7 °F 19.4 °F 93% 30.15 in 10.0 mi ESE 8.1 mph - N/A   Clear
2:53 AM 21.2 °F 12.6 °F 19.4 °F 93% 30.15 in 10.0 mi ESE 6.9 mph - N/A   Clear
3:13 AM 21.2 °F 10.9 °F 17.6 °F 86% 30.13 in 10.0 mi ESE 9.2 mph - N/A   Clear
3:33 AM 21.2 °F 9.5 °F 19.4 °F 93% 30.12 in 10.0 mi ESE 11.5 mph - N/A   Clear
3:53 AM 21.2 °F 10.1 °F 19.4 °F 93% 30.12 in 10.0 mi ESE 10.4 mph - N/A   Clear
4:14 AM 21.2 °F 10.1 °F 19.4 °F 93% 30.11 in 10.0 mi ESE 10.4 mph - N/A   Clear
4:33 AM 23.0 °F 11.7 °F 19.4 °F 86% 30.11 in 10.0 mi ESE 11.5 mph - N/A   Clear
4:53 AM 21.2 °F 8.3 °F 19.4 °F 93% 30.09 in 10.0 mi ESE 13.8 mph - N/A   Clear
5:13 AM 21.2 °F 8.3 °F 19.4 °F 93% 30.08 in 10.0 mi East 13.8 mph - N/A   Clear
5:33 AM 21.2 °F 7.8 °F 19.4 °F 93% 30.08 in 10.0 mi ESE 15.0 mph - N/A   Clear
5:54 AM 21.2 °F 8.9 °F 19.4 °F 93% 30.07 in 10.0 mi ESE 12.7 mph - N/A   Clear
6:13 AM 23.0 °F 11.7 °F 19.4 °F 86% 30.07 in 10.0 mi ESE 11.5 mph - N/A   Clear
6:33 AM 23.0 °F 10.1 °F 19.4 °F 86% 30.06 in 10.0 mi ESE 15.0 mph - N/A   Clear
6:54 AM 23.0 °F 10.1 °F 19.4 °F 86% 30.06 in 10.0 mi East 15.0 mph - N/A   Clear
7:13 AM 23.0 °F 9.6 °F 21.2 °F 93% 30.05 in 10.0 mi ESE 16.1 mph - N/A   Clear
7:33 AM 23.0 °F 9.6 °F 21.2 °F 93% 30.04 in 10.0 mi East 16.1 mph - N/A   Clear
7:53 AM 24.8 °F 11.1 °F 21.2 °F 86% 30.03 in 10.0 mi ESE 18.4 mph 23.0 mph N/A   Clear
8:13 AM 26.6 °F 14.3 °F 23.0 °F 86% 30.02 in 10.0 mi ESE 16.1 mph - N/A   Clear
8:33 AM 26.6 °F 14.3 °F 23.0 °F 86% 30.01 in 10.0 mi ESE 16.1 mph - N/A   Clear
8:53 AM 28.4 °F 17.0 °F 24.8 °F 86% 30.00 in 10.0 mi ESE 15.0 mph 21.9 mph N/A   Clear
9:13 AM 30.2 °F 18.5 °F 24.8 °F 80% 30.00 in 10.0 mi ESE 17.3 mph 23.0 mph N/A   Clear
9:34 AM 30.2 °F 18.9 °F 24.8 °F 80% 29.99 in 10.0 mi ESE 16.1 mph 20.7 mph N/A   Clear
9:53 AM 30.2 °F 18.9 °F 24.8 °F 80% 29.97 in 10.0 mi ESE 16.1 mph 20.7 mph N/A   Clear
10:13 AM 33.8 °F 23.9 °F 26.6 °F 75% 29.97 in 10.0 mi SE 15.0 mph 23.0 mph N/A   Clear
10:34 AM 35.6 °F 24.2 °F 26.6 °F 70% 29.96 in 10.0 mi SE 21.9 mph 29.9 mph N/A   Clear
10:53 AM 35.6 °F 24.8 °F 26.6 °F 70% 29.95 in 10.0 mi SE 19.6 mph 24.2 mph N/A   Clear
11:13 AM 39.2 °F 28.7 °F 26.6 °F 61% 29.92 in 10.0 mi SE 23.0 mph 33.4 mph N/A   Clear
11:34 AM 41.0 °F 31.1 °F 28.4 °F 61% 29.91 in 10.0 mi SE 23.0 mph 31.1 mph N/A   Clear
11:53 AM 41.0 °F 31.1 °F 28.4 °F 61% 29.90 in 10.0 mi SE 23.0 mph 29.9 mph N/A   Clear
12:13 PM 42.8 °F 33.8 °F 28.4 °F 57% 29.89 in 10.0 mi SSE 21.9 mph 29.9 mph N/A   Clear
12:33 PM 42.8 °F 33.8 °F 28.4 °F 57% 29.87 in 10.0 mi SSE 21.9 mph 27.6 mph N/A   Clear
12:53 PM 44.6 °F 36.6 °F 30.2 °F 57% 29.86 in 10.0 mi SSE 19.6 mph 27.6 mph N/A   Clear
1:14 PM 46.4 °F 38.1 °F 30.2 °F 53% 29.84 in 10.0 mi SSE 24.2 mph 29.9 mph N/A   Clear
1:33 PM 46.4 °F 39.0 °F 30.2 °F 53% 29.84 in 10.0 mi SE 19.6 mph 31.1 mph N/A   Clear
1:53 PM 46.4 °F 38.3 °F 30.2 °F 53% 29.83 in 10.0 mi SSE 23.0 mph 28.8 mph N/A   Clear
2:14 PM 46.4 °F 37.9 °F 30.2 °F 53% 29.81 in 10.0 mi SSE 25.3 mph 33.4 mph N/A   Clear
2:33 PM 46.4 °F 38.3 °F 30.2 °F 53% 29.80 in 10.0 mi SSE 23.0 mph 32.2 mph N/A   Clear
2:53 PM 46.4 °F 37.4 °F 30.2 °F 53% 29.80 in 10.0 mi SSE 28.8 mph 34.5 mph N/A   Clear
3:14 PM 46.4 °F 38.1 °F 30.2 °F 53% 29.78 in 10.0 mi SE 24.2 mph 32.2 mph N/A   Clear
3:33 PM 46.4 °F 38.5 °F 30.2 °F 53% 29.78 in 10.0 mi SE 21.9 mph 34.5 mph N/A   Clear
3:53 PM 44.6 °F 36.6 °F 30.2 °F 57% 29.78 in 10.0 mi SE 19.6 mph 26.5 mph N/A   Clear
4:14 PM 44.6 °F 36.4 °F 30.2 °F 57% 29.77 in 10.0 mi SE 20.7 mph 25.3 mph N/A   Clear
4:33 PM 44.6 °F 35.7 °F 30.2 °F 57% 29.77 in 10.0 mi SE 24.2 mph 32.2 mph N/A   Clear
4:54 PM 44.6 °F 35.5 °F 32.0 °F 61% 29.76 in 10.0 mi SE 25.3 mph 29.9 mph N/A   Clear
5:13 PM 42.8 °F 32.9 °F 32.0 °F 66% 29.75 in 10.0 mi SSE 26.5 mph 32.2 mph N/A   Clear
5:33 PM 42.8 °F 33.1 °F 32.0 °F 66% 29.76 in 10.0 mi SSE 25.3 mph 34.5 mph N/A   Clear
5:54 PM 42.8 °F 33.5 °F 33.8 °F 70% 29.75 in 10.0 mi SSE 23.0 mph 29.9 mph N/A   Clear
6:13 PM 42.8 °F 33.5 °F 33.8 °F 70% 29.75 in 10.0 mi SSE 23.0 mph 32.2 mph N/A   Clear
6:33 PM 42.8 °F 33.3 °F 33.8 °F 70% 29.75 in 10.0 mi SSE 24.2 mph 32.2 mph N/A   Clear
6:54 PM 44.6 °F 35.9 °F 33.8 °F 66% 29.74 in 10.0 mi SSE 23.0 mph 33.4 mph N/A   Clear
7:13 PM 44.6 °F 35.1 °F 33.8 °F 66% 29.73 in 10.0 mi SSE 27.6 mph 38.0 mph N/A   Clear
7:33 PM 44.6 °F 35.5 °F 33.8 °F 66% 29.74 in 10.0 mi SSE 25.3 mph 33.4 mph N/A   Clear
7:54 PM 44.6 °F 35.5 °F 33.8 °F 66% 29.74 in 10.0 mi SSE 25.3 mph 36.8 mph N/A   Clear
8:13 PM 44.6 °F 35.3 °F 33.8 °F 66% 29.75 in 10.0 mi SSE 26.5 mph 39.1 mph N/A   Clear
8:33 PM 44.6 °F 34.9 °F 33.8 °F 66% 29.75 in 10.0 mi SSE 28.8 mph 38.0 mph N/A   Clear
8:53 PM 44.6 °F 35.5 °F 32.0 °F 61% 29.75 in 10.0 mi SSE 25.3 mph 35.7 mph N/A   Clear
9:13 PM 44.6 °F 35.7 °F 32.0 °F 61% 29.75 in 10.0 mi SSE 24.2 mph 33.4 mph N/A   Clear
9:34 PM 42.8 °F 33.3 °F 32.0 °F 66% 29.74 in 10.0 mi SSE 24.2 mph 35.7 mph N/A   Clear
9:53 PM 42.8 °F 32.9 °F 32.0 °F 66% 29.75 in 10.0 mi SSE 26.5 mph 32.2 mph N/A   Clear
10:13 PM 42.8 °F 32.9 °F 32.0 °F 66% 29.74 in 10.0 mi SSE 26.5 mph 33.4 mph N/A   Clear
10:34 PM 42.8 °F 33.1 °F 32.0 °F 66% 29.74 in 10.0 mi SSE 25.3 mph 32.2 mph N/A   Clear
10:53 PM 44.6 °F 35.5 °F 32.0 °F 61% 29.74 in 10.0 mi SSE 25.3 mph 33.4 mph N/A   Clear
11:13 PM 42.8 °F 33.5 °F 30.2 °F 61% 29.73 in 10.0 mi SSE 23.0 mph 35.7 mph N/A   Clear
11:34 PM 42.8 °F 33.8 °F 30.2 °F 61% 29.73 in 10.0 mi SSE 21.9 mph 36.8 mph N/A   Clear
11:53 PM 42.8 °F 33.5 °F 30.2 °F 61% 29.73 in 10.0 mi SSE 23.0 mph 32.2 mph N/A   Clear